This is the latest recevied weather packets stored in our database for station/object EA1IRT-1. If no packets are shown the sender has not sent any weather packets the latest 10 day(s).
| Time | Temp. | Humidity | Pressure | Rain* | Wind** | Luminosity | Snow |
|---|---|---|---|---|---|---|---|
| 1777633198 | 20° C | 76% | 1019.5 hPa | - | - | - | - |
| 1777632273 | 18.89° C | 81% | 1019.5 hPa | - | - | - | - |
| 1777631349 | 18.89° C | 85% | 1019.6 hPa | - | - | - | - |
| 1777630455 | 18.33° C | 86% | 1019.5 hPa | - | - | - | - |
| 1777629549 | 18.33° C | 84% | 1019.4 hPa | - | - | - | - |
| 1777628655 | 18.33° C | 82% | 1019.4 hPa | - | - | - | - |
| 1777626848 | 17.22° C | 93% | 1019.4 hPa | - | - | - | - |
| 1777625948 | 17.78° C | 94% | 1019.5 hPa | - | - | - | - |
| 1777625048 | 17.78° C | 94% | 1019.5 hPa | - | - | - | - |
| 1777624155 | 17.78° C | 97% | 1019.6 hPa | - | - | - | - |
| 1777623248 | 16.67° C | 100% | 1019.6 hPa | - | - | - | - |
| 1777621423 | 17.78° C | 100% | 1019.6 hPa | - | - | - | - |
| 1777620499 | 16.67° C | 100% | 1019.5 hPa | - | - | - | - |
| 1777619599 | 15.56° C | 100% | 1019.4 hPa | - | - | - | - |
| 1777618705 | 15° C | 100% | 1019.5 hPa | - | - | - | - |
| 1777617799 | 15° C | 100% | 1019.4 hPa | - | - | - | - |
| 1777616905 | 15° C | 100% | 1019.3 hPa | - | - | - | - |
| 1777615999 | 14.44° C | 100% | 1019.3 hPa | - | - | - | - |
| 1777615099 | 14.44° C | 100% | 1019.3 hPa | - | - | - | - |
| 1777614205 | 14.44° C | 100% | 1019.2 hPa | - | - | - | - |
| 1777613298 | 14.44° C | 100% | 1019.2 hPa | - | - | - | - |
| 1777612398 | 14.44° C | 100% | 1019.2 hPa | - | - | - | - |
| 1777611498 | 14.44° C | 100% | 1019.2 hPa | - | - | - | - |
| 1777610573 | 14.44° C | 100% | 1019.2 hPa | - | - | - | - |
| 1777609649 | 14.44° C | 100% | 1019.2 hPa | - | - | - | - |
* Rain since midnight (hover to see other rain measurements)
** Current wind speed in m/s (hover to see current wind gust speed)